Date,TemperatureHighF,TemperatureAvgF,TemperatureLowF,DewpointHighF,DewpointAvgF,DewpointLowF,HumidityHigh,HumidityAvg,HumidityLow,PressureMaxIn,PressureMinIn,WindSpeedMaxMPH,WindSpeedAvgMPH,GustSpeedMaxMPH,PrecipitationSumIn
2013-1-1,68.7,42.8,30.7,39.3,32.4,27.4,95,72,26,29.96,29.87,6,1,43,0.00
2013-1-2,65.5,40.5,27.0,40.2,32.3,25.2,94,76,39,29.92,29.81,5,0,6,0.00
2013-1-3,66.0,41.0,27.7,41.2,32.8,26.2,94,76,34,29.95,29.83,3,0,7,0.01
2013-1-4,68.7,43.7,31.3,44.1,35.8,29.8,94,77,39,29.97,29.85,4,0,6,0.00
2013-1-5,47.8,41.4,32.2,45.6,39.2,30.3,97,92,80,29.93,29.74,3,0,4,0.37
2013-1-6,62.4,47.4,36.1,48.3,42.6,34.6,96,85,54,29.88,29.75,4,1,6,0.05
2013-1-7,67.3,47.0,34.9,51.1,41.8,32.8,97,84,55,29.93,29.83,4,0,5,0.00
2013-1-8,68.5,47.8,37.4,53.7,43.3,36.1,97,86,56,29.93,29.81,3,0,5,0.01
2013-1-9,51.8,44.9,36.1,48.4,40.9,32.3,96,86,68,29.85,29.67,9,1,14,0.02
2013-1-10,55.6,41.5,29.1,39.4,32.1,27.4,95,72,40,30.52,29.76,10,3,18,0.01
2013-1-11,59.9,43.9,32.4,39.2,33.7,27.8,88,69,43,29.92,29.79,6,2,10,0.00
2013-1-12,59.7,41.0,28.8,36.8,30.8,26.5,93,70,35,29.92,29.81,4,1,7,0.00
2013-1-13,61.9,38.1,23.7,34.9,27.1,11.6,92,69,27,29.93,29.85,7,1,10,0.00
2013-1-14,64.8,41.9,27.1,32.8,27.0,9.1,86,60,23,30.06,29.89,9,1,11,0.00
2013-1-15,62.2,40.2,26.8,36.9,29.9,24.3,92,71,32,30.15,30.06,4,1,8,0.00
2013-1-16,69.1,41.6,27.3,41.4,32.0,25.3,93,73,36,30.12,29.94,4,0,5,0.00
2013-1-17,71.8,42.4,27.0,43.1,33.4,25.5,94,75,29,29.95,29.82,3,0,4,0.00
2013-1-18,73.0,43.3,26.4,42.0,33.3,24.4,93,73,26,29.90,29.81,3,0,4,0.00
2013-1-19,75.6,45.2,27.0,43.6,34.6,25.0,93,72,29,29.92,29.82,3,0,5,0.00
2013-1-20,63.5,37.9,27.0,40.7,32.7,25.0,93,83,40,30.64,29.84,2,0,4,0.00
2013-1-21,72.7,44.7,28.2,42.6,34.7,26.2,93,73,30,29.96,29.85,4,0,6,0.01
2013-1-22,68.4,45.9,29.8,43.1,36.6,28.1,94,73,36,29.89,29.75,4,0,5,0.00
2013-1-23,52.5,48.7,44.1,49.0,45.6,39.2,97,89,77,29.88,29.73,3,0,4,0.40
2013-1-24,63.3,53.5,48.9,57.2,51.0,48.1,98,91,77,29.99,29.85,3,0,6,0.02
2013-1-25,65.1,55.0,46.4,56.5,51.6,45.0,98,89,68,30.00,29.84,3,0,5,0.00
2013-1-26,62.1,50.4,38.1,50.0,41.0,33.9,97,73,40,30.56,29.75,10,2,14,0.01
2013-1-27,62.2,46.9,35.2,37.4,35.0,32.3,91,66,35,29.96,29.84,8,3,13,0.00
2013-1-28,61.7,48.8,36.3,40.9,37.8,32.4,90,67,44,30.07,29.93,9,3,14,0.00
2013-1-29,71.4,53.7,43.5,44.1,40.3,36.3,80,62,37,30.14,30.05,8,3,14,0.00
2013-1-30,75.2,53.8,39.6,48.8,42.0,36.0,88,67,35,30.85,30.02,8,2,8,0.00
2013-1-31,75.0,49.8,33.4,47.9,40.0,31.6,95,73,33,30.08,29.95,5,1,7,0.00
2013-2-1,76.1,51.1,33.6,50.6,41.5,32.1,95,73,38,30.00,29.88,5,1,7,0.00
2013-2-2,68.2,48.3,38.7,52.3,43.3,36.4,97,84,56,30.09,29.99,5,1,8,0.00
2013-2-3,70.2,50.6,39.0,49.9,43.9,36.9,95,80,47,30.04,29.91,5,1,6,0.00
2013-2-4,60.4,46.8,38.7,50.6,43.3,36.5,97,88,70,29.96,29.85,6,1,8,0.00
2013-2-5,65.3,51.3,43.5,49.7,44.6,38.1,95,79,52,29.94,29.83,8,1,14,0.02
2013-2-6,66.9,48.6,33.3,46.2,39.2,31.2,94,73,39,29.99,29.87,6,1,9,0.00
2013-2-7,60.1,47.6,36.1,50.6,39.5,33.1,95,76,38,29.93,29.77,7,1,12,0.09
2013-2-8,64.0,46.1,32.9,38.8,34.8,28.0,95,69,27,29.80,29.71,8,2,14,0.01
2013-2-9,68.2,46.8,34.0,36.6,30.7,23.8,87,59,21,29.88,29.78,5,1,8,0.00
2013-2-10,71.6,46.5,29.5,42.1,34.3,26.6,91,67,29,29.89,29.77,5,1,8,0.00
2013-2-11,75.2,51.3,36.7,42.3,34.6,27.2,89,61,19,30.01,29.86,6,1,9,0.00
2013-2-12,68.9,47.5,31.8,45.6,37.9,29.5,92,72,38,30.14,30.01,6,1,10,0.00
2013-2-13,74.3,48.8,32.4,47.8,39.2,30.3,93,73,37,30.11,29.98,6,1,9,0.00
2013-2-14,77.4,51.8,35.6,52.4,41.3,33.9,94,72,37,30.03,29.91,7,1,9,0.00
2013-2-15,79.0,53.1,34.9,48.1,40.4,32.8,94,68,25,30.05,29.97,5,1,8,0.00
2013-2-16,77.5,53.2,38.5,49.1,41.5,35.6,91,70,27,30.03,29.82,8,1,9,0.00
2013-2-17,72.1,50.0,34.9,46.3,39.3,33.6,96,71,32,29.83,29.73,10,1,11,0.00
2013-2-18,59.4,45.5,35.2,44.9,39.2,32.2,96,80,58,29.80,29.68,6,1,8,0.00
2013-2-19,55.0,43.6,35.6,46.4,36.0,-4.4,95,76,45,29.73,29.51,12,2,16,0.13
2013-2-20,64.2,48.6,36.7,37.5,34.3,30.3,81,60,31,29.84,29.62,10,4,15,0.00
2013-2-21,68.9,52.5,41.4,37.8,33.7,24.3,77,53,21,29.95,29.82,8,3,11,0.00
2013-2-22,70.0,53.2,36.5,45.0,39.2,32.1,86,62,31,30.02,29.93,6,2,9,0.00
2013-2-23,64.4,51.7,40.6,41.0,33.8,25.5,85,54,23,30.05,29.94,10,4,16,0.00
2013-2-24,76.6,52.2,38.5,37.2,31.4,13.9,79,52,11,30.05,29.91,6,2,9,0.00
2013-2-25,75.7,51.5,34.7,42.7,31.5,8.6,89,58,10,30.04,29.91,13,2,18,0.00
2013-2-26,79.2,53.6,39.0,37.8,31.3,15.9,79,51,10,30.00,29.88,6,2,9,0.00
2013-2-27,76.5,53.7,32.9,48.1,36.9,26.6,88,59,19,30.14,29.98,7,2,11,0.00
2013-2-28,78.6,59.6,46.2,55.9,49.3,43.2,90,71,41,30.22,30.12,7,1,11,0.00
2013-3-1,80.6,58.3,41.4,53.3,46.8,39.5,95,70,30,30.21,30.00,7,1,10,0.00
2013-3-2,74.8,58.5,46.2,53.8,48.8,43.5,91,72,45,30.03,29.83,5,1,8,0.00
2013-3-3,74.5,56.9,48.6,52.8,48.1,44.9,91,75,39,29.87,29.76,10,2,11,0.00
2013-3-4,64.6,49.6,39.7,50.5,44.5,36.5,93,83,58,29.93,29.83,6,1,9,0.00
2013-3-5,55.2,47.8,37.9,49.3,42.5,35.5,96,83,65,29.85,29.54,12,3,18,0.63
2013-3-6,60.1,49.1,36.7,49.3,42.9,34.6,95,81,46,29.84,29.57,14,4,20,0.35
2013-3-7,59.7,46.9,34.9,44.6,38.0,33.5,96,74,46,30.42,29.65,6,1,9,0.00
2013-3-8,69.6,51.8,36.1,42.9,37.3,32.6,91,62,27,29.81,29.61,9,3,15,0.00
2013-3-9,80.6,55.6,36.7,44.2,37.7,25.3,89,58,14,30.10,29.81,7,2,10,0.00
2013-3-10,77.5,55.0,37.4,47.2,38.4,21.6,90,62,14,30.12,30.00,7,2,9,0.00
2013-3-11,78.1,54.4,36.0,50.9,42.5,33.6,93,69,29,30.05,29.86,8,1,13,0.00
2013-3-12,80.1,56.8,40.8,56.1,46.3,38.4,96,72,37,29.94,29.83,8,2,11,0.00
2013-3-13,87.4,60.3,40.6,55.2,47.1,38.8,95,68,21,29.94,29.82,6,1,8,0.00
2013-3-14,78.3,58.3,45.0,58.1,47.8,31.9,92,72,21,29.95,29.85,5,1,7,0.00
2013-3-15,81.3,58.8,42.3,55.2,45.5,39.8,93,67,27,29.91,29.79,8,2,12,0.00
2013-3-16,80.6,59.1,40.5,49.9,40.2,21.2,93,58,12,29.92,29.78,11,3,23,0.04
2013-3-17,77.2,58.7,47.8,46.0,40.9,25.7,79,55,16,29.92,29.80,10,4,17,0.00
2013-3-18,73.0,54.6,38.8,49.0,42.6,36.2,91,67,35,29.89,29.78,6,2,9,0.00
2013-3-19,62.1,52.8,42.8,50.7,44.9,38.8,90,75,49,29.90,29.83,4,0,8,0.09
2013-3-20,66.0,53.8,46.4,56.8,50.2,44.7,96,88,69,29.92,29.83,6,2,11,0.33
2013-3-21,73.6,54.7,41.0,45.6,40.6,38.0,91,63,32,29.92,29.78,7,3,10,0.00
2013-3-22,74.8,56.4,44.1,39.2,33.3,20.5,71,47,15,29.91,29.80,7,4,12,0.00
2013-3-23,74.8,55.4,39.6,44.1,38.0,29.9,84,57,20,29.92,29.79,8,2,11,0.00
2013-3-24,45.5,44.4,43.0,40.6,39.8,39.1,86,84,81,29.86,29.85,0,0,2,0.00
2013-3-25,74.8,56.4,44.1,41.3,33.8,20.4,71,48,14,30.08,29.97,7,4,12,0.00
2013-3-26,74.8,55.9,39.7,42.2,36.8,29.9,85,53,20,30.10,29.97,8,2,11,0.00
2013-3-27,71.2,53.9,42.3,50.3,41.5,38.7,92,66,31,30.09,29.95,6,2,9,0.00
2013-3-28,70.0,56.1,48.9,57.7,51.3,46.7,94,85,63,30.05,29.96,3,0,7,0.01
2013-3-29,82.6,61.8,47.7,59.1,52.1,46.6,97,74,37,30.06,29.95,9,2,12,0.00
2013-3-30,72.1,58.4,52.2,57.6,51.6,48.4,93,79,52,30.04,29.95,8,2,11,0.05
2013-3-31,64.8,56.3,51.3,57.2,54.0,50.4,97,92,70,30.04,29.96,4,1,8,0.93
2013-4-1,71.1,57.8,49.1,60.2,52.8,46.1,99,85,58,30.12,30.02,8,1,13,0.06
2013-4-2,73.4,55.8,44.6,57.6,49.8,43.2,96,82,55,30.16,30.03,7,2,11,0.00
2013-4-3,78.4,58.6,49.6,58.6,51.1,47.8,95,79,46,30.84,29.93,7,2,11,0.00
2013-4-4,61.3,55.1,50.0,58.5,53.3,48.0,97,94,87,30.09,29.94,8,2,12,0.76
2013-4-5,70.2,58.9,52.3,56.1,53.1,49.1,98,82,56,30.16,30.06,7,2,11,0.01
2013-4-6,72.5,59.4,53.1,57.2,52.5,49.9,93,80,50,30.84,30.06,7,2,13,0.02
2013-4-7,70.2,57.5,50.4,57.9,50.6,44.3,95,79,52,30.14,29.77,10,3,16,0.05
2013-4-8,73.8,57.2,45.9,45.7,37.6,32.0,85,52,24,30.02,29.76,13,7,21,0.02
2013-4-9,84.0,63.3,43.9,43.6,39.7,31.2,83,48,17,30.08,29.98,8,2,11,0.00
2013-4-10,91.9,70.3,52.9,52.3,46.9,39.9,74,48,18,30.13,29.97,9,1,17,0.00
2013-4-11,91.9,66.9,45.9,51.9,42.0,31.9,70,45,18,30.18,29.93,13,4,19,0.00
2013-4-12,59.2,49.7,44.2,49.4,42.8,40.4,89,78,64,29.98,29.93,0,0,0,0.00
2013-4-18,62.6,51.9,44.1,49.3,43.0,40.4,89,73,51,29.81,29.73,0,0,0,0.00
2013-4-19,84.0,63.8,43.9,49.5,39.9,31.2,84,47,16,30.02,29.80,8,2,11,0.00
2013-4-20,91.9,69.8,46.0,52.3,46.6,36.4,74,48,18,30.07,29.75,10,1,17,0.00
2013-4-21,93.9,61.6,45.9,51.6,37.7,31.9,70,45,13,29.92,29.77,13,6,19,0.01
2013-4-22,97.0,72.4,52.5,55.6,45.3,26.2,82,48,10,29.86,29.71,2,0,10,0.00
2013-4-23,90.9,68.5,47.7,51.8,36.4,9.4,89,41,10,29.82,29.73,13,2,17,0.00
2013-4-24,68.4,54.9,46.0,50.9,47.0,43.8,93,76,53,29.86,29.73,8,2,14,0.00
2013-4-25,71.4,57.3,50.0,52.6,47.6,44.6,85,71,50,30.02,29.86,6,1,11,0.00
2013-4-26,75.6,57.1,45.0,57.1,48.9,42.1,91,76,49,30.13,30.02,6,1,13,0.00
2013-4-27,81.9,59.8,48.9,57.4,49.9,46.2,94,73,39,30.12,29.96,8,1,12,0.00
2013-4-28,92.8,66.5,42.4,58.0,49.9,40.3,92,62,25,29.96,29.75,4,0,9,0.00
2013-4-29,89.1,69.2,59.9,51.7,48.2,46.2,64,49,26,29.80,29.65,10,2,15,0.00
2013-4-30,92.3,72.3,55.8,47.0,39.4,25.6,63,36,10,29.77,29.66,6,1,15,0.00
2013-5-1,94.3,75.2,54.7,44.3,26.4,6.4,62,20,10,29.99,29.76,13,2,21,0.00
2013-5-2,97.9,71.6,45.9,87.4,36.5,22.3,78,38,10,30.04,29.94,5,0,10,0.00
2013-5-3,96.8,70.8,46.9,49.3,40.0,27.4,74,41,10,29.98,29.69,5,0,11,0.00
2013-5-4,95.7,68.1,48.7,54.0,44.5,27.1,84,54,10,29.69,29.44,9,1,15,0.00
2013-5-5,108.0,59.8,56.7,53.3,50.0,39.8,79,70,59,31.05,29.52,10,1,52,0.00
2013-5-6,76.1,62.2,50.4,54.5,50.6,46.9,90,68,41,29.87,29.71,7,0,13,0.00
2013-5-7,77.4,63.3,51.3,55.8,51.5,47.7,90,68,41,29.94,29.85,9,1,13,0.00
2013-5-8,71.6,58.1,52.0,56.2,51.3,48.0,92,79,57,30.03,29.93,7,1,11,0.00
2013-5-9,76.8,60.3,49.6,56.6,51.2,46.5,91,74,49,30.07,29.95,8,2,11,0.00
2013-5-10,79.3,62.6,52.9,59.2,52.7,48.5,88,72,48,30.08,29.97,8,2,15,0.00
2013-5-11,90.3,64.9,48.6,62.4,52.8,45.8,96,70,33,30.05,29.91,6,1,9,0.00
2013-5-12,87.3,65.7,47.3,63.3,53.3,45.9,97,68,39,30.04,29.89,8,1,11,0.00
2013-5-13,94.1,68.8,49.6,64.1,52.3,46.3,96,61,25,30.72,29.81,9,1,14,0.00
2013-5-14,92.7,70.9,52.2,56.3,47.5,29.6,83,50,12,29.87,29.74,10,2,14,0.00
2013-5-15,87.8,65.4,46.0,50.6,44.6,38.8,87,53,20,29.92,29.83,10,2,14,0.00
2013-5-16,79.7,66.6,56.3,53.7,50.0,44.4,76,57,34,29.90,29.80,9,1,14,0.00
2013-5-17,78.6,62.5,45.0,51.5,46.4,41.3,89,59,33,29.96,29.85,7,2,13,0.00
2013-5-18,86.7,65.7,43.9,51.3,45.0,37.0,89,54,20,30.01,29.93,11,3,14,0.00
2013-5-19,92.1,70.8,-11.2,50.1,41.5,-29.0,67,41,10,30.03,29.84,14,2,14,0.00
2013-5-20,95.4,73.3,53.4,52.7,43.7,27.9,78,44,10,29.90,29.77,7,1,13,0.00
2013-5-21,77.4,63.1,50.4,47.7,44.7,38.1,86,56,25,29.88,29.79,11,4,17,0.00
2013-5-29,95.4,92.2,81.7,51.5,35.0,27.9,34,14,10,30.13,30.03,7,3,11,0.00
2013-5-30,85.8,63.4,50.4,51.2,45.6,38.2,86,57,25,30.21,30.03,11,4,17,0.00
2013-5-31,92.1,71.7,55.4,51.2,43.5,26.1,67,42,10,30.29,30.12,13,3,14,0.00
2013-6-1,90.1,68.2,-11.2,53.6,46.1,-29.3,73,50,17,30.16,29.91,10,1,11,0.20
2013-6-2,90.7,74.5,58.1,55.4,49.6,45.4,72,44,25,29.92,29.77,8,3,11,0.00
2013-6-3,75.4,62.1,51.1,55.5,51.4,46.4,86,69,49,30.04,29.85,10,3,14,0.01
2013-6-4,72.0,60.6,53.4,55.8,51.9,48.9,86,74,55,30.12,30.01,10,3,12,0.00
2013-6-5,78.3,62.3,53.2,57.2,52.6,49.4,90,72,47,30.15,30.06,9,3,13,0.00
2013-6-6,83.7,62.9,52.3,59.5,52.8,-2.0,90,73,43,30.11,29.97,42,3,42,0.09
2013-6-7,98.6,71.9,51.8,64.5,55.6,49.7,93,63,28,30.05,29.85,6,2,9,0.00
2013-6-8,96.8,72.1,57.2,64.9,56.8,52.3,85,62,32,30.00,29.82,9,3,15,0.00
2013-6-9,72.3,61.0,0.0,57.5,54.3,23.0,85,74,59,30.05,29.99,10,3,11,0.09
2013-6-10,65.1,59.6,56.5,60.6,56.1,53.5,97,89,71,30.12,29.93,6,2,9,0.28
2013-6-11,86.0,67.4,51.8,61.4,55.7,50.3,95,69,40,30.14,30.01,7,1,10,0.00
2013-6-12,90.9,68.2,46.6,52.3,42.5,26.0,93,49,10,30.14,30.04,11,4,14,0.00
2013-6-13,90.7,71.0,55.0,46.6,42.6,28.5,59,39,13,30.24,30.13,11,4,17,0.00
2013-6-14,95.4,73.2,55.0,50.6,44.5,26.3,76,43,10,30.16,29.94,8,4,13,0.00
2013-6-15,86.0,65.8,47.7,55.6,50.4,44.2,88,61,32,30.13,29.98,11,2,13,0.00
2013-6-16,96.1,71.5,47.5,53.3,46.7,34.1,90,50,14,30.21,30.12,7,2,12,0.00
2013-6-17,90.9,70.5,50.4,56.3,50.6,45.1,84,54,25,30.23,30.11,7,2,12,0.00
2013-6-18,82.2,66.7,52.3,55.0,47.4,38.4,88,54,23,30.16,30.07,10,4,17,0.00
2013-6-19,84.6,67.5,50.7,49.6,44.7,38.2,80,49,20,30.20,30.11,9,4,15,0.00
2013-6-20,91.6,71.6,54.5,51.8,42.2,25.4,69,41,10,30.17,30.03,12,4,14,0.00
2013-6-21,97.9,73.7,49.1,54.3,42.8,27.5,84,41,11,30.13,30.00,7,2,11,0.00
2013-6-22,97.0,76.9,54.9,52.8,46.2,28.1,74,39,10,30.07,29.95,11,3,15,0.00
2013-6-23,75.0,66.1,58.5,62.0,57.2,52.1,88,74,56,29.99,29.93,6,3,11,0.00
2013-6-24,66.9,61.0,58.1,59.9,57.0,54.8,96,87,76,30.05,29.93,4,2,8,0.24
2013-6-25,66.9,62.7,-13.5,65.2,61.5,-14.6,98,96,92,30.15,30.02,7,2,10,1.38
2013-6-26,89.8,71.4,61.7,68.7,63.6,60.0,99,79,45,30.22,30.12,6,2,9,0.05
2013-6-27,97.3,76.8,59.4,68.6,62.6,57.4,97,66,34,30.25,30.13,6,2,8,0.00
2013-6-28,107.8,84.5,60.4,70.3,56.4,4.6,92,48,10,30.18,30.01,11,2,11,0.00
2013-6-29,110.3,86.4,61.7,66.0,58.1,41.1,83,45,11,30.06,29.91,7,2,11,0.00
2013-6-30,100.2,80.3,60.8,65.3,59.7,54.8,81,53,29,29.99,29.87,7,2,11,0.00
2013-7-1,102.9,79.5,58.5,67.4,59.8,54.1,86,56,27,29.98,29.91,7,2,11,0.00
2013-7-2,95.4,73.6,65.5,64.7,59.5,56.6,75,63,36,30.03,29.96,6,1,7,0.00
2013-7-4,105.1,92.1,76.8,67.9,52.6,34.2,51,29,10,29.91,29.79,10,5,19,0.00
2013-7-5,89.6,72.4,57.2,60.3,52.9,42.1,77,53,29,29.90,29.81,9,3,14,0.00
2013-7-6,84.6,66.5,54.1,61.2,54.6,49.7,87,68,43,29.95,29.86,8,3,11,0.00
2013-7-7,84.6,65.4,54.0,61.7,54.5,50.7,90,71,41,30.02,29.92,8,3,11,0.00
2013-7-8,86.5,65.5,53.2,61.8,54.5,50.3,91,71,40,30.14,30.02,8,3,11,0.00
2013-7-9,98.8,72.4,54.1,60.1,54.1,41.5,95,61,16,30.19,30.06,6,2,11,0.00
2013-7-10,83.7,64.5,52.3,60.2,52.8,46.7,92,70,29,30.15,30.03,9,3,20,0.00
2013-7-11,80.6,62.2,51.6,58.3,52.7,49.3,93,74,44,30.11,29.99,8,3,11,0.00
2013-7-12,83.7,64.6,54.1,60.2,53.9,50.6,90,71,44,30.85,29.99,8,2,12,0.00
2013-7-13,88.2,67.9,55.2,60.5,53.2,50.5,85,63,30,30.11,30.03,8,3,13,0.00
2013-7-14,82.8,64.3,53.4,59.2,53.7,50.2,92,72,41,30.16,30.02,9,3,11,0.00
2013-7-15,74.8,59.5,51.3,57.4,52.4,49.0,93,79,53,30.08,29.97,9,3,13,0.00
2013-7-16,75.6,61.6,54.3,60.7,54.5,51.6,93,79,59,30.18,30.02,7,2,11,0.00
2013-7-17,85.5,65.7,52.0,62.4,55.6,49.3,92,73,44,30.25,30.15,7,2,11,0.00
2013-7-18,87.1,67.1,55.0,62.3,55.9,51.9,94,71,39,30.21,30.06,11,3,11,0.00
2013-7-19,92.1,67.2,52.9,63.6,55.0,50.3,95,70,35,30.10,29.94,8,2,14,0.00
2013-7-20,90.3,66.6,51.6,63.0,54.7,48.5,94,70,37,30.00,29.85,9,3,12,0.00
2013-7-21,87.4,66.0,54.1,60.6,53.9,50.0,91,69,36,30.05,29.90,8,3,14,0.00
2013-7-22,91.2,68.0,50.9,60.8,54.6,48.3,91,67,28,30.12,30.03,8,2,14,0.00
2013-7-23,82.2,70.1,60.3,61.3,57.0,52.9,84,65,40,30.15,30.08,6,2,9,0.00
2013-7-24,90.3,70.0,55.8,63.5,56.4,52.9,91,66,35,30.14,30.03,9,3,14,0.00
2013-7-25,83.8,66.1,55.4,59.9,55.1,51.9,91,70,42,30.84,30.06,9,3,15,0.00
2013-7-26,83.3,64.1,53.4,61.2,54.5,50.7,92,74,45,30.25,30.14,8,3,13,0.00
2013-7-27,81.9,63.5,54.5,60.1,54.7,51.6,92,75,47,30.19,30.00,14,3,14,0.00
2013-7-28,78.6,61.2,53.2,59.8,53.6,50.7,92,78,50,30.04,29.94,8,3,15,0.00
2013-7-29,77.2,61.2,54.5,59.1,53.8,50.9,90,78,51,30.18,29.99,8,2,12,0.00
2013-7-30,78.4,62.4,54.3,60.5,54.2,50.9,91,77,52,30.26,30.17,8,3,12,0.00
2013-7-31,84.9,65.0,53.8,60.7,54.7,51.3,95,73,40,30.24,30.09,8,2,10,0.00
2013-8-1,88.0,67.5,47.7,56.9,52.3,45.2,93,63,33,30.20,30.07,8,2,13,0.00
2013-8-2,89.4,68.9,48.4,57.6,51.5,45.6,90,60,25,30.13,29.99,8,2,13,0.00
2013-8-3,107.6,58.1,0.0,61.6,53.1,47.0,92,64,40,30.12,30.03,11,3,56,0.00
2013-8-4,87.4,60.0,0.0,61.5,55.5,22.9,87,46,40,30.16,29.80,98,4,98,0.00
2013-8-5,78.8,61.8,53.2,60.1,53.5,8.6,94,77,48,29.95,29.83,9,3,12,0.09
2013-8-6,80.4,61.9,53.1,59.0,53.4,50.3,93,76,46,29.97,29.87,9,2,15,0.00
2013-8-7,66.9,59.2,56.7,55.7,53.0,51.6,85,80,67,30.01,29.95,2,1,4,0.00
2013-8-8,81.0,65.3,55.4,61.2,56.6,52.2,92,76,49,29.95,29.83,9,2,13,0.00
2013-8-9,79.0,62.7,53.4,59.8,54.6,51.4,94,77,49,29.91,29.81,8,3,14,0.00
2013-8-10,82.4,65.7,57.0,61.1,56.4,53.2,90,74,47,29.96,29.88,7,2,11,0.00
2013-8-11,84.6,65.8,56.1,62.3,56.8,52.8,95,76,43,29.94,29.81,9,3,12,0.00
2013-8-12,86.2,65.3,54.5,60.5,55.1,50.9,95,73,36,29.91,29.82,8,2,11,0.00
2013-8-13,98.1,70.9,53.1,60.8,54.4,44.7,95,63,17,29.90,29.78,8,2,12,0.00
2013-8-14,97.3,72.0,50.0,61.4,54.2,46.7,91,60,22,29.88,29.75,9,2,11,0.00
2013-8-15,95.0,73.9,55.0,66.1,60.4,52.3,93,67,35,29.86,29.78,10,2,14,0.00
2013-8-16,96.4,73.7,58.8,66.7,60.0,54.9,95,68,26,29.89,29.81,7,2,12,0.00
2013-8-17,93.6,73.1,54.0,61.9,57.1,51.4,91,62,32,29.89,29.72,6,1,10,0.00
2013-8-18,101.1,76.9,56.1,64.5,58.3,52.8,90,58,26,29.79,29.65,7,2,11,0.00
2013-8-19,94.3,73.3,59.7,64.6,58.8,55.5,88,63,35,29.79,29.69,6,2,10,0.00
2013-8-20,87.6,68.0,58.8,63.4,58.4,55.5,90,74,37,29.82,29.71,7,3,12,0.00
2013-8-21,82.8,66.5,55.8,60.4,56.3,51.3,88,72,44,29.86,29.75,9,3,99,0.00
2013-8-22,82.4,65.0,54.5,60.5,55.3,50.7,91,73,45,31.04,29.78,9,3,12,0.00
2013-8-23,84.6,67.8,57.0,60.6,56.0,52.6,87,69,43,29.84,29.68,9,2,12,0.00
2013-8-24,97.0,69.4,50.9,78.3,55.7,31.5,92,66,30,29.78,29.69,14,3,14,0.00
2013-8-25,86.0,69.9,-31.5,65.2,59.2,-43.6,90,71,44,29.85,29.77,9,2,13,0.11
2013-8-26,92.3,71.7,59.5,62.8,58.2,53.0,95,67,31,29.92,29.77,8,2,11,0.00
2013-8-27,94.3,70.8,51.4,59.8,54.6,48.3,91,62,26,29.82,29.68,8,2,10,0.00
2013-8-28,90.1,70.3,56.7,66.2,60.3,55.2,96,74,42,29.84,29.75,9,2,12,0.00
2013-8-29,93.6,73.0,61.3,66.5,61.8,58.8,93,72,37,29.96,29.84,10,2,13,0.00
2013-8-30,101.8,76.6,56.3,65.0,58.7,52.6,94,61,22,29.94,29.77,7,2,10,0.00
2013-8-31,80.4,62.7,54.5,59.7,55.4,50.7,90,78,49,29.88,29.83,4,0,4,0.00
2013-9-4,55.9,54.9,53.6,51.8,51.2,50.4,89,87,85,30.11,30.08,1,0,2,0.00
2013-9-5,91.4,74.4,52.7,59.7,50.2,39.6,91,48,17,30.14,30.04,9,3,13,0.00
2013-9-6,101.1,76.8,53.6,55.9,47.4,38.6,79,43,12,30.11,29.95,8,1,11,0.00
2013-9-7,102.0,77.1,52.7,56.2,48.0,31.9,85,48,10,30.10,29.91,7,2,11,0.00
2013-9-8,97.5,69.1,52.3,58.9,52.7,46.1,90,63,18,30.03,29.88,7,1,10,0.00
2013-9-9,99.9,77.0,59.4,58.6,56.0,54.9,86,54,24,29.92,29.80,8,3,8,0.00
2013-9-10,76.6,64.8,57.9,61.2,58.5,54.5,92,81,59,30.05,29.87,10,3,10,0.00
2013-9-11,72.9,65.9,62.2,61.9,60.3,59.1,93,83,67,30.14,30.04,5,1,5,0.00
2013-9-12,86.0,68.9,59.5,65.2,60.1,56.5,90,75,48,30.13,29.99,7,2,7,0.00
2013-9-13,87.3,63.1,56.5,61.6,54.9,51.6,96,77,37,30.15,29.88,8,1,14,0.00
2013-9-14,87.1,65.5,53.6,61.1,55.9,50.4,95,74,41,30.01,29.88,7,2,11,0.00
2013-9-15,86.4,66.7,51.1,60.9,56.2,48.3,93,72,40,30.04,29.96,7,2,12,0.00
2013-9-16,92.5,72.0,58.3,61.8,57.8,53.3,97,65,31,30.09,29.92,6,3,11,0.00
2013-9-17,84.2,68.0,52.3,57.9,51.9,48.6,93,61,32,30.08,29.98,10,4,17,0.00
2013-9-18,92.5,70.4,55.9,52.1,47.4,-45.4,75,49,12,30.11,29.99,19,3,102,0.00
2013-9-19,102.0,75.2,52.7,56.2,47.9,31.9,85,51,10,30.15,29.92,7,2,11,0.00
2013-9-20,84.4,63.0,45.5,62.9,54.3,42.3,96,76,43,30.02,29.96,10,2,15,0.01
2013-9-21,77.9,64.3,52.7,63.9,57.4,49.6,98,81,43,30.09,29.95,6,2,10,0.00
2013-9-22,82.2,63.5,46.8,57.2,49.2,42.6,97,66,26,30.20,30.08,9,1,12,0.00
2013-9-23,92.3,69.5,51.1,62.9,55.4,48.3,92,65,33,30.21,30.07,5,1,9,0.00
2013-9-24,85.6,67.1,54.5,58.1,51.2,45.0,91,62,25,30.16,30.06,10,2,14,0.00
2013-9-25,78.4,62.3,47.1,52.0,44.4,37.6,90,57,24,30.87,30.00,11,3,17,0.00
2013-9-26,89.1,64.8,50.2,45.2,39.6,26.4,68,45,11,30.20,30.03,8,1,11,0.00
2013-9-27,88.3,65.9,50.4,47.6,39.1,23.3,76,46,10,30.29,30.17,8,0,11,0.00
2013-9-28,88.7,64.5,44.6,55.4,42.6,22.3,84,55,10,30.28,30.17,8,1,12,0.00
2013-9-29,77.0,63.2,54.3,65.1,59.0,50.7,97,87,65,30.28,30.22,5,0,9,0.01
2013-9-30,83.1,66.1,52.2,68.8,61.6,47.2,98,86,59,30.24,30.15,6,1,8,0.00
2013-10-1,86.2,63.2,44.8,54.3,47.1,42.5,95,62,24,30.20,30.08,6,1,11,0.00
2013-10-2,86.0,65.5,50.4,49.7,44.4,30.0,84,53,15,30.20,30.10,9,2,14,0.00
2013-10-4,101.1,70.1,56.3,55.4,46.4,14.5,85,56,10,29.99,29.67,10,2,12,0.02
2013-10-5,96.8,66.9,44.1,38.8,30.9,19.1,63,32,10,30.10,29.98,3,0,11,0.00
2013-10-6,94.8,63.8,43.0,39.7,34.2,22.5,71,41,10,30.03,29.88,3,0,6,0.00
2013-10-7,91.9,64.1,42.8,46.1,37.2,23.6,74,46,10,29.91,29.73,2,0,8,0.00
2013-10-8,86.9,64.2,48.7,49.4,44.0,37.2,83,53,20,29.81,29.60,9,1,11,0.00
2013-10-9,85.6,64.2,52.5,44.4,40.3,29.9,71,46,14,29.66,29.50,8,2,12,0.00
2013-10-10,82.6,60.2,46.2,51.6,43.8,38.8,87,59,27,29.91,29.65,5,1,10,0.00
2013-10-11,77.4,55.3,45.3,52.3,46.9,42.2,98,77,37,30.00,29.87,8,1,9,0.00
2013-10-12,80.6,57.8,41.4,53.0,45.9,40.5,98,69,37,29.91,29.76,7,1,13,0.00
2013-10-13,88.0,60.5,42.1,49.6,42.0,30.6,92,58,15,29.97,29.82,9,1,14,0.00
2013-10-14,93.4,60.5,41.2,48.0,39.1,28.6,88,55,12,30.02,29.88,7,0,11,0.00
2013-10-15,98.4,61.7,41.0,44.1,34.2,21.7,82,47,10,29.95,29.82,6,0,8,0.00
2013-10-16,93.7,60.7,39.0,41.6,32.8,22.5,80,44,10,29.99,29.89,4,0,8,0.00
2013-10-17,96.3,61.7,40.5,42.3,34.7,26.3,77,45,10,29.99,29.83,6,0,9,0.00
2013-10-18,89.2,59.5,39.4,45.4,39.4,34.5,85,55,15,29.95,29.86,6,0,10,0.00
2013-10-19,99.9,61.4,38.8,48.4,39.6,28.1,90,56,10,29.98,29.86,4,0,6,0.00
2013-10-20,89.1,57.8,39.2,50.3,42.9,36.2,90,65,19,29.93,29.78,5,1,8,0.00
2013-10-21,88.5,57.7,46.0,55.2,48.2,44.1,97,75,31,30.60,29.78,4,0,7,0.00
2013-10-22,90.3,58.3,45.3,55.3,47.9,42.2,97,74,25,29.93,29.79,6,1,8,0.00
2013-10-23,85.8,56.2,44.2,56.4,48.0,42.9,98,79,33,29.88,29.76,6,1,10,0.00
2013-10-24,80.1,55.1,45.1,54.7,48.5,42.2,96,81,38,30.01,29.87,4,0,8,0.00
2013-10-25,83.7,55.0,39.0,54.2,45.5,37.5,96,74,33,30.07,29.97,2,0,6,0.00
2013-10-26,96.1,59.6,39.0,51.9,43.5,29.5,94,64,16,30.05,29.89,4,0,7,0.00
2013-10-27,80.4,53.4,41.5,56.4,45.9,38.4,97,78,39,29.94,29.52,7,1,11,0.00
2013-10-28,77.4,55.2,41.2,47.2,42.7,38.8,91,67,30,29.73,29.55,6,1,12,0.00
2013-10-29,75.2,53.5,39.9,50.7,44.1,37.8,95,74,39,30.60,29.72,5,0,8,0.00
2013-10-30,78.3,52.7,37.2,50.9,41.6,35.2,94,70,35,30.05,29.95,7,0,9,0.00
2013-10-31,88.2,56.1,37.8,49.4,42.0,35.4,92,65,25,30.08,29.94,4,0,7,0.00
2013-11-1,89.1,58.4,41.0,50.6,43.0,37.9,92,62,24,30.05,29.90,3,0,6,0.00
2013-11-2,78.8,57.5,42.1,50.8,42.8,36.0,88,62,27,29.93,29.78,9,2,19,0.00
2013-11-3,67.1,55.4,46.2,39.6,34.6,27.4,68,47,24,29.95,29.83,12,5,17,0.00
2013-11-4,51.4,46.6,44.8,37.6,35.4,33.7,71,65,53,29.91,29.82,5,1,8,0.00
2013-11-5,81.7,56.1,46.9,40.0,37.0,32.1,68,51,18,30.12,29.99,2,0,2,0.00
2013-11-6,79.9,58.8,44.8,48.5,40.9,35.6,85,56,26,30.16,30.04,5,0,8,0.00
2013-11-7,79.9,59.9,47.5,49.2,42.2,37.6,82,56,24,30.08,29.94,4,0,7,0.00
2013-11-8,79.9,56.5,42.4,53.7,43.8,31.6,91,68,21,29.99,29.82,6,1,9,0.00
2013-11-9,78.6,54.5,37.9,49.6,42.8,35.3,92,69,29,29.95,29.83,7,0,9,0.00
2013-11-10,71.1,52.5,42.6,52.8,45.6,39.6,95,79,49,30.02,29.91,4,0,7,0.00
2013-11-11,68.7,54.9,42.3,50.8,47.3,39.5,94,77,49,30.08,29.97,3,0,5,0.00
2013-11-12,77.7,59.8,47.5,51.0,47.3,42.1,83,66,32,30.18,30.05,6,0,11,0.00
2013-11-13,83.3,57.5,42.4,54.9,47.3,39.7,92,73,36,30.16,29.98,6,0,8,0.00
2013-11-14,67.3,54.3,47.1,54.5,46.5,34.4,97,78,43,30.02,29.78,5,1,10,0.17
2013-11-15,73.6,55.7,42.4,41.2,38.1,33.4,77,54,24,29.78,29.59,7,1,11,0.00
2013-11-16,70.2,52.5,38.8,46.5,41.0,34.4,88,68,40,29.82,29.66,9,2,16,0.00
2013-11-17,65.7,49.3,38.3,49.9,42.9,35.6,95,80,56,29.99,29.81,4,0,7,0.00
2013-11-18,61.2,49.0,37.4,49.2,43.4,35.0,94,82,62,30.06,29.97,4,0,6,0.01
2013-11-19,73.2,56.9,51.1,56.1,47.2,13.4,99,84,10,30.00,29.82,2,0,4,0.00
2013-11-20,73.2,59.4,52.7,61.2,49.9,13.4,99,84,10,29.82,29.74,5,1,8,0.00
2013-11-21,89.6,57.5,50.0,52.5,27.8,2.4,99,48,10,29.97,29.79,20,6,25,0.23
2013-11-22,77.0,66.6,58.3,16.3,8.3,2.0,10,10,10,29.96,29.83,19,8,28,0.00
2013-11-23,71.8,60.0,38.1,32.7,20.1,1.3,69,26,10,30.05,29.88,14,2,20,0.00
2013-11-24,68.5,47.0,32.7,42.9,34.6,27.4,86,65,32,30.19,30.03,1,0,6,0.00
2013-11-25,68.0,47.1,34.2,44.1,37.8,31.3,92,73,39,30.26,30.18,0,0,0,0.00
2013-11-26,64.2,48.1,36.9,44.2,39.7,34.2,91,75,47,30.21,29.98,0,0,0,0.00
2013-11-27,69.8,49.2,35.8,46.2,40.0,33.2,93,73,40,29.98,29.76,1,0,5,0.00
2013-11-28,73.9,51.4,37.9,47.4,40.5,35.3,92,70,33,30.01,29.81,4,0,8,0.00
2013-11-29,71.4,50.2,36.7,46.5,40.3,34.0,92,72,38,30.16,30.00,1,0,6,0.00
2013-11-30,72.1,51.5,40.6,47.3,41.8,37.4,92,73,37,30.21,30.11,0,0,0,0.00
2013-12-1,73.0,51.2,36.5,50.3,42.4,34.1,95,75,42,30.27,30.14,3,0,4,0.00
2013-12-2,67.3,51.4,36.3,51.1,44.4,34.0,96,79,51,30.17,29.86,8,1,14,0.00
2013-12-3,58.6,50.6,41.0,50.8,33.4,25.3,89,54,29,29.88,29.77,15,2,17,0.00
2013-12-4,56.3,40.4,28.9,33.7,26.9,22.3,86,62,28,30.03,29.88,1,0,6,0.00
2013-12-5,53.8,35.8,24.8,31.4,24.2,18.4,85,66,28,30.09,30.01,1,0,4,0.00
2013-12-6,42.8,32.8,23.4,41.7,29.5,19.8,97,87,67,30.10,29.83,0,0,0,0.00
2013-12-7,48.6,36.9,28.4,40.1,29.1,22.7,99,76,43,30.21,29.85,11,1,17,0.00
2013-12-8,50.4,34.3,26.4,30.4,23.9,20.1,88,69,32,30.26,30.17,0,0,4,0.00
2013-12-9,53.6,34.3,22.1,29.5,23.2,18.9,89,67,30,30.37,30.24,2,0,7,0.00
2013-12-10,56.7,36.1,23.5,31.3,25.0,20.3,88,68,30,30.36,30.15,0,0,0,0.00
2013-12-11,61.3,39.0,26.4,36.4,29.1,22.0,90,71,33,30.18,30.11,0,0,3,0.00
2013-12-12,61.3,40.0,26.2,37.5,30.1,23.5,92,71,33,30.20,30.10,0,0,4,0.00
2013-12-13,65.1,42.0,27.7,40.0,32.3,24.8,91,72,36,30.27,30.17,0,0,0,0.00
2013-12-14,67.8,43.5,29.8,43.3,34.6,27.6,94,74,36,30.34,30.23,2,0,6,0.00
2013-12-15,64.9,42.4,29.1,42.7,34.4,26.8,94,76,41,30.32,30.18,0,0,0,0.00
2013-12-16,66.2,44.5,31.5,41.7,35.3,29.2,94,73,38,30.19,30.06,4,0,6,0.00
2013-12-17,67.3,45.0,32.4,43.2,36.3,30.0,93,75,39,30.12,29.97,0,0,0,0.00
2013-12-18,63.1,47.2,35.1,47.0,39.4,-7.2,92,76,46,29.97,29.68,8,0,88,0.00
2013-12-19,64.6,52.0,45.1,39.0,29.5,13.3,72,47,17,29.89,29.65,9,2,14,0.00
2013-12-20,68.2,51.5,36.0,41.4,26.3,-5.8,62,42,12,29.95,29.86,10,1,14,0.00
2013-12-21,69.3,57.1,48.7,47.3,45.1,40.1,81,66,43,30.03,29.88,12,1,21,0.00
2013-12-22,69.6,50.3,38.8,46.4,41.3,34.6,93,74,42,30.24,30.02,3,0,8,0.06
2013-12-23,70.2,48.0,34.3,46.9,38.7,32.0,94,73,39,30.34,30.23,0,0,0,0.00
2013-12-24,72.1,49.0,36.1,48.2,40.0,33.7,93,74,39,30.29,30.14,0,0,0,0.00
2013-12-25,70.5,46.3,32.4,43.2,35.8,30.3,95,72,28,30.25,30.13,0,0,0,0.00
2013-12-26,70.0,44.7,29.7,39.7,33.2,26.8,91,69,27,30.20,30.09,0,0,0,0.00
2013-12-27,59.4,41.9,31.8,39.0,33.1,28.4,88,73,45,30.18,30.07,0,0,0,0.00
2013-12-28,73.0,45.7,28.4,39.4,31.3,25.5,90,63,24,30.08,29.95,0,0,0,0.00
2013-12-29,69.1,45.4,31.8,35.1,28.9,24.8,80,57,19,30.13,30.01,2,0,4,0.00
2013-12-30,65.3,44.2,29.3,36.7,31.0,24.7,85,63,32,30.19,30.10,0,0,3,0.00
2013-12-31,65.3,44.4,34.9,39.7,33.3,29.8,88,68,34,30.22,30.09,0,0,0,0.00
2014-1-1,68.5,44.7,30.2,38.7,31.5,26.6,90,65,25,30.14,30.06,0,0,2,0.00
2014-1-2,66.9,46.6,33.6,40.7,34.8,29.6,87,66,36,30.12,29.99,0,0,0,0.00